Starlink 35044

operational
NORAD ID: 65536 Int'l Des: 2025-200 Owner: SPXS Country: US Constellation: starlink
LEOCIRCULARRETROGRADE

Starlink 35044について

説明を読み込み中...

リアルタイム位置

3D地球を読み込み中...

次回通過

高度履歴

Altitude vs Time

uPlot chart will show altitude changes over time

軌道要素

1 65536U 25200S 25304.16628855 .00054351 00000-0 13843-2 0 9998
2 65536 97.6037 11.8456 0001554 91.0361 269.1062 15.39377756 9625
Epoch: Oct 31, 2025 • Age: 8 hours

現在のステータス

高度 457.1 km
速度 7.64 km/s
衛星直下点 59.60°N, 19.41°W
打ち上げ日 Sep 6, 2025
運用期間 0.1 years
タイプ internet

技術仕様

分類 Payload
質量 575.00 kg
乾燥質量 530.00 kg
総質量 575.00 kg
長さ 0.30 m
直径 4.10 m
スパン 29.00 m
形状 Box + pan
製造者 SPXS
バスタイプ Starlink V2MO
フェーズステータス In Orbit
所有者/国 SPXS/US

大規模コンステレーション

Loading constellations...